Regional Weather Roundup
Issued by NWS

Home | Current Version | Previous Version | Text Only | Print | Product List | Glossary Off
Versions: 1 2 3 4 5 6 7 8 9 10 11 12 13 14 15 16 17 18 19 20 21 22 23 24 25 26 27 28 29 30 31 32 33 34 35 36 37 38 39 40 41 42 43 44 45 46 47 48 49 50

000
ASUS43 KDMX 120203
RWRIA

WEATHER ROUNDUP FOR IOWA
NATIONAL WEATHER SERVICE DES MOINES IA
800 PM CST THU FEB 11 2016

NOTE: "FAIR" INDICATES FEW OR NO CLOUDS BELOW 12,000 FEET WITH NO
SIGNIFICANT WEATHER AND/OR OBSTRUCTIONS TO VISIBILITY.

* - THESE STATIONS ARE NOT NWS STATIONS...THUS NOT UNDER NWS
QUALITY CONTROL.  THEY ALSO DO NOT REPORT WEATHER SUCH
AS PRECIPITATION OR FOG.

IAZ001>003-012>014-020>022-031>034-043>046-120300-
   NORTHWEST IOWA

CITY           SKY/WX    TMP DP  RH WIND       PRES   REMARKS
CARROLL *      CLOUDY    16  14  93 SE8       30.22F FOG     WCI   5
CHEROKEE *     LGT SNOW  15  14  93 S5        30.22S WCI   8
DENISON *      LGT SNOW  18  16  93 E6        30.20R WCI   9
LE MARS *      CLOUDY    18  18 100 SE6       30.23S FOG     WCI   9
ORANGE CITY *  CLOUDY    16  14  93 CALM      30.20S
SHELDON *      CLOUDY    12  10  92 S7        30.19S WCI   2
SIOUX CITY     LGT SNOW  20  16  84 E6        30.21F FOG     WCI  12
SPENCER        CLOUDY    12   8  84 S5        30.21S WCI   4
STORM LAKE *   CLOUDY    14  14 100 S9        30.20R FOG     WCI   2
$$

IAZ055>058-069>071-079>083-090>094-120300-
   SOUTHWEST IOWA

CITY           SKY/WX    TMP DP  RH WIND       PRES   REMARKS
ATLANTIC *     LGT SNOW  21  16  79 E9        30.21S WCI  11
AUDUBON *      LGT SNOW  18  16  93 CALM      30.21F
CLARINDA *     CLOUDY    30  21  69 CALM      30.21F
COUNCIL BLFS * CLOUDY    25  21  86 N8        30.19S WCI  16
CRESTON *      CLOUDY    21  14  73 E10       30.22R WCI  10
HARLAN  *      LGT SNOW  19  18  93 E7        30.24S WCI  10
LAMONI         CLOUDY    26  13  57 E7        30.21S WCI  18
RED OAK *      MIX PCPN  30  21  69 CALM      30.19F
SHENANDOAH *   CLOUDY    30  23  74 SE5       30.19F WCI  25
$$

IAZ047>049-059>061-072>074-084-120300-
   CENTRAL IOWA

CITY           SKY/WX    TMP DP  RH WIND       PRES   REMARKS
AMES           LGT SNOW  16  13  88 SE3       30.26F FOG
ANKENY *       CLOUDY    18  16  93 CALM      30.26F FOG
BOONE *        LGT SNOW  16  12  86 E6        30.23S WCI   7
CHARITON *     LGT SNOW  19  16  86 E5        30.24F WCI  13
DES MOINES     LGT SNOW  19  14  81 E3        30.26S
GRINNELL*      LGT SNOW  19  14  79 S5        30.26S WCI  13
KNOXVILLE *    LGT SNOW  19  16  86 SE3       30.24F
MARSHALLTOWN   CLOUDY    18   9  68 CALM      30.25F
NEWTON *       LGT SNOW  18  16  93 CALM      30.26S
PELLA *        LGT SNOW  19  16  85 CALM      30.27F
$$

IAZ004>006-015-016-023>025-035-036-120300-
   NORTH CENTRAL IOWA

CITY           SKY/WX    TMP DP  RH WIND       PRES   REMARKS
ALGONA *       CLOUDY    12  10  92 S10       30.21F WCI  -1
CLARION *      CLOUDY    12   9  85 S7        30.23F WCI   2
ESTHERVILLE    CLOUDY     8   6  92 SW8       30.20S WCI  -4
FORT DODGE *   CLOUDY    14   9  79 CALM      30.24F
MASON CITY     CLOUDY    10   4  76 S5        30.24F WCI   2
FOREST CITY *    N/A     10   5  79 S5        30.22F WCI   2
WEBSTER CITY * LGT SNOW  14  12  92 E6        30.23F WCI   5
IOWA FALLS *   LGT SNOW  16  10  79 CALM      30.26S
$$

IAZ007>011-017>019-026>030-037>042-050>054-066-120300-
   NORTHEAST IOWA

CITY           SKY/WX    TMP DP  RH WIND       PRES   REMARKS
CEDAR RAPIDS   CLOUDY    21  10  62 S6        30.26F WCI  13
CHARLES CITY * CLOUDY    10   1  67 SW3       30.25F
CLINTON *      MOCLDY    18  10  71 CALM      30.29F
DECORAH *      CLOUDY    10   1  67 CALM      30.24R
DUBUQUE        PTCLDY    14   4  64 N5        30.25F WCI   6
MONTICELLO *   CLOUDY    18   7  62 CALM      30.27S
OELWEIN *      CLOUDY    12   5  73 CALM      30.26S
WATERLOO       CLOUDY    13   6  74 CALM      30.27S
$$

IAZ064-065-067-068-078-120300-
   EAST CENTRAL IOWA

CITY           SKY/WX    TMP DP  RH WIND       PRES   REMARKS
DAVENPORT      PTCLDY    20   7  57 CALM      30.28F
IOWA CITY      CLOUDY    22   7  52 S3        30.30S
MT. PLEASANT * CLOUDY    26  14  60 S8        30.28S WCI  18
MUSCATINE *    CLOUDY    25   7  46 S3        30.30F
QUAD CITIES    CLOUDY    21   7  54 S3        30.29S
$$

IAZ062-063-075>077-085>089-095>099-120300-
   SOUTHEAST IOWA

CITY           SKY/WX    TMP DP  RH WIND       PRES   REMARKS
BURLINGTON     CLOUDY    23  11  60 S5        30.28S WCI  17
FAIRFIELD *    LGT SNOW  21  14  73 S5        30.28S WCI  15
FORT MADISON * CLOUDY    23  12  63 SW3       30.29S
KEOKUK *       CLOUDY    25  10  54 CALM      30.27F
OSKALOOSA *    LGT SNOW  21  16  79 SW6       30.27F WCI  14
OTTUMWA        LGT SNOW  20  16  84 CALM      30.27F FOG
WASHINGTON *   CLOUDY    23  10  58 CALM      30.29S
$$

ABBREVIATIONS USED IN REMARKS
   TC - TEMPERATURES IN CELSIUS
  WCI - WIND CHILL INDEX
   HX - HEAT INDEX
  VSB - VISIBILITY
$$





USA.gov is the U.S. government's official web portal to all federal, state and local government web resources and services.